Terminal Aerodrome Forecast
Issued by NWS

Home | Current Version | Previous Version | Text Only | Print | Product List | Glossary Off
Versions: 1 2 3 4 5 6 7 8 9 10 11 12 13 14 15 16 17 18 19 20 21 22 23 24 25 26 27 28 29 30 31 32 33 34 35 36 37

000
FTUS43 KABR 300500
TAFATY
TAF
KATY 300539Z 3006/3106 36011KT P6SM OVC010
      TEMPO 3006/3009 OVC006
     FM301400 VRB03KT P6SM BKN015
     FM301900 12006KT P6SM SKC=

USA.gov is the U.S. government's official web portal to all federal, state and local government web resources and services.